Regional Weather Roundup
Issued by NWS

Home | Current Version | Previous Version | Graphics & Text | Print | Product List | Glossary Off
Versions: 1 2 3 4 5 6 7 8 9 10 11 12 13 14 15 16 17 18 19 20 21 22 23 24 25 26 27 28 29 30 31 32 33 34 35 36 37 38 39 40 41 42 43 44 45 46 47 48 49 50

000
ASUS43 KMKX 171600
RWRWI

WISCONSIN REGIONAL WEATHER ROUNDUP
NATIONAL WEATHER SERVICE MILWAUKEE/SULLIVAN WI
1100 AM CDT THU APR 17 2014

NOTE: "FAIR" INDICATES FEW OR NO CLOUDS BELOW 12,000 FEET WITH NO
SIGNIFICANT WEATHER AND/OR OBSTRUCTIONS TO VISIBILITY.

WIZ001-002-006>008-014>016-023>028-171700-
NORTHWEST WISCONSIN

CITY           SKY/WX    TMP DP  RH WIND       PRES   REMARKS
SUPERIOR ARPT  CLOUDY    31  24  75 N12       30.22R WCI  21
ASHLAND        CLOUDY    31  30  96 NW7       30.17R FOG     WCI  24
HAYWARD        CLOUDY    31  28  89 VRB3      30.16R
SIREN          CLOUDY    30  28  90 NW7       30.21R WCI  23
RICE LAKE      CLOUDY    32  29  90 NW7       30.18R WCI  26
LADYSMITH      CLOUDY    34  33  95 NW9       30.14R FOG     WCI  26
EAU CLAIRE     NOT AVBL
MENOMONIE      CLOUDY    34  32  92 W12       30.18R WCI  25
NEW RICHMOND   CLOUDY    30  30  99 NW14      30.22R WCI  20
OSCEOLA        CLOUDY    31  29  92 N10       30.25R WCI  22
$$

WIZ003>005-009-010-017-018-171700-
NORTH CENTRAL WISCONSIN

CITY           SKY/WX    TMP DP  RH WIND       PRES   REMARKS
WOODRUFF       CLOUDY    37  34  90 CALM      30.08R
RHINELANDER    CLOUDY    33  31  92 SE3       30.09R
EAGLE RIVER    CLOUDY    33  32  95 SE5       30.09R WCI  28
LAND O LAKES   CLOUDY    33  31  91 SE5       30.10R WCI  29
PHILLIPS       CLOUDY    33  32  98 NW3       30.09R FOG
TOMAHAWK       CLOUDY    33  31  92 CALM      30.09R
MEDFORD        CLOUDY    34  32  94 S3        30.10R FOG
MERRILL        CLOUDY    36  33  90 CALM      30.10R
$$

WIZ029-030-035-036-043>047-171700-
CENTRAL WISCONSIN

CITY           SKY/WX    TMP DP  RH WIND       PRES   REMARKS
WAUSAU         CLOUDY    38  33  82 CALM      30.09R
MOSINEE        NOT AVBL
MARSHFIELD     CLOUDY    43  36  76 W9        30.11R
STEVENS POINT  SUNNY     39  32  77 CALM      30.10R
WAUPACA        SUNNY     46  34  61 E3        30.10R
WAUTOMA        NOT AVBL
WISC RAPIDS    PTSUNNY   49  34  56 NW13      30.11R
CAMP DOUGLAS   NOT AVBL
$$

WIZ011>013-019>022-031-037>040-048>050-171700-
NORTHEAST WISCONSIN

CITY           SKY/WX    TMP DP  RH WIND       PRES   REMARKS
ANTIGO         CLOUDY    33  31  92 SE9       30.09R FOG     WCI  26
STURGEON BAY   CLOUDY    36  28  75 SE10      30.14S WCI  28
GREEN BAY      CLOUDY    42  34  73 S9        30.11R
MANITOWOC      NOT AVBL
APPLETON       NOT AVBL
CLINTONVILLE   MOSUNNY   41  34  75 SE8       30.09S
OSHKOSH        CLOUDY    46  34  62 SW12      30.10R
$$

WIZ032>034-041-042-053>061-171700-
SOUTHWEST WISCONSIN

CITY           SKY/WX    TMP DP  RH WIND       PRES   REMARKS
LA CROSSE      CLOUDY    41  34  76 NW12      30.18R
SPARTA         CLOUDY    46  36  67 W12G17    30.13R
VIROQUA        CLOUDY    40  37  87 W13       30.13R WCI  33
BOSCOBEL       CLOUDY    43  34  70 W9        30.18R
PRAIRIE DU CHI CLOUDY    41  33  73 W10       30.18R
PLATTEVILLE    CLOUDY    39  33  79 W10       30.18R WCI  33
$$

WIZ056-057-062-063-064-067-068-171700-
SOUTH CENTRAL WISCONSIN

CITY           SKY/WX    TMP DP  RH WIND       PRES   REMARKS
BARABOO/DELLS  PTSUNNY   44  36  72 W12       30.11R
LONE ROCK      NOT AVBL
WATERTOWN      CLOUDY    44  37  74 SW15      30.12R
MADISON        CLOUDY    43  36  76 VRB3      30.14R
MIDDLETON      CLOUDY    44  35  72 W12       30.13R
MONROE         CLOUDY    41  41  97 W17       30.15R
JANESVILLE     CLOUDY    46  36  66 W14       30.15R
$$

WIZ051-052-058>065-066-070>072-171700-
SOUTHEAST WISCONSIN

CITY           SKY/WX    TMP DP  RH WIND       PRES   REMARKS
MILWAUKEE      PTSUNNY   52  36  54 W17G24    30.14R
WAUKESHA       CLOUDY    46  36  66 SW14      30.13R
MILWAUKEE/TIMM MOSUNNY   52  34  50 SW16G23     N/A
RACINE         PTSUNNY   52  38  58 W16G24    30.15R
BURLINGTON     PTSUNNY   49  37  63 W12       30.14R
KENOSHA        MOSUNNY   51  40  65 W16G25    30.14R
FOND DU LAC    CLOUDY    47  35  63 SW14G21   30.10R
SHEBOYGAN      CLOUDY    46  36  68 S10       30.11R
WEST BEND      CLOUDY    46  32  57 SW13      30.10R
JUNEAU         CLOUDY    44  33  63 SW15      30.12R
$$

LSZ147-162-171700-
LAKE SUPERIOR

STATION/POSITION TIME  TEMP    WIND        PRES    WAVE
                       AIR SEA DIR/SP/G            HT/PER
                 (UTC) (F)     (DEG/KT/KT) (MB)    (FT/S)
DEVILS ISLAND    1500   31      80/ 11/ 14 1021.8R
PORT WING        1540   31     350/  7/  9 1022.4R
SAXON HARBOR     1500             CALM     1020.3R
$$

LMZ867-665-643>646-171700-
LAKE MICHIGAN

STATION/POSITION TIME  TEMP    WIND        PRES    WAVE
                       AIR SEA DIR/SP/G            HT/PER
                 (UTC) (F)     (DEG/KT/KT) (MB)    (FT/S)
NORTHPORT PIER   1500   34     130/ 13/ 16 1021.7R
SISTER BAY       1523   35     150/  8/ 15   N/A
KEWAUNEE LAKESHO 1500   37     170/ 11/ 14 1021.1
SHEBOYGAN LAKESH 1500   38     170/ 18/ 20 1020.3R
PORT WASHINGTON  1500   41     190/  9/ 12 1020.3S
MILWAUKEE LAKESH 1500   49     230/ 16/ 20   N/A
KENOSHA   LAKESH 1500   50     230/ 10/ 19   N/A
$$

TC  - TEMPERATURE IN CELSIUS
VSB - VISIBILITY IN STATUTE MILES
WCI - WIND CHILL INDEX
HX  - HEAT INDEX




USA.gov is the U.S. government's official web portal to all federal, state and local government web resources and services.